Tracking 19846 objects as of 19-Sep-2019
HD Live streaming from Space Station
objects crossing your sky now

COSMOS 828


10-day predictions
COSMOS 828 is classified as:


NORAD ID: 8892
Int'l Code: 1976-054D
Perigee: 1,439.9 km
Apogee: 1,495.5 km
Inclination: 74.0 °
Period: 115.1 minutes
Semi major axis: 7838 km
RCS: 0.681 m2 (medium)
Launch date: June 15, 1976
Source: Commonwealth of Independent States (former USSR) (CIS)
Launch site: PLESETSK MISSILE AND SPACE COMPLEX (PKMTR)
aabbcc
Your satellite tracking list
Your tracking list is empty




NASA's NSSDC Master Catalog

Two Line Element Set (TLE):
1  8892U 76054D   19261.51143154 -.00000024 +00000-0 -51803-4 0  9991
2  8892 073.9984 285.5281 0035467 145.2897 325.7886 12.50945091975399
Source of the keplerian elements: AFSPC